GFSCGP_sfc_temp_057.txt.gz
Temp
56 51 47 53 55 57 57 55 55 60 66 62 61 64 69 73 73 74 76 77 78 78 82 82 81 81 82 81 80 80 78 76 76 76 76 76 75 73 76 77 76 75 74 75
50 45 54 56 56 53 53 51 51 58 61 60 62 62 68 68 69 72 73 74 75 77 78 80 79 80 81 80 79 79 78 75 74 77 76 78 76 75 77 77 76 76 75 75
46 51 56 53 52 50 51 49 51 52 57 61 58 56 60 68 70 72 74 74 74 74 75 77 79 80 81 80 79 80 78 75 74 75 75 74 74 74 74 74 75 75 75 76
49 56 51 51 49 53 46 56 54 53 51 47 59 46 59 65 66 69 71 72 72 74 76 77 79 80 80 81 82 80 76 74 74 74 75 74 78 76 77 76 77 76 76 76
47 49 49 49 50 55 49 57 55 54 51 51 52 47 55 64 62 66 70 70 73 76 78 79 80 81 81 82 80 79 75 74 74 73 75 76 76 76 77 76 74 74 74 75
50 57 53 53 56 56 58 54 53 53 51 40 49 48 52 59 63 67 71 74 75 76 78 78 79 79 78 81 78 75 73 73 73 74 74 74 72 73 74 75 75 75 75 75
46 47 54 56 50 55 53 48 38 35 36 36 52 47 53 64 66 66 69 71 74 76 77 77 77 79 79 77 75 74 73 72 73 74 74 74 73 74 73 74 76 73 74 74
32 31 46 52 51 49 49 48 41 31 35 40 50 43 54 65 69 71 72 71 73 75 77 76 77 78 79 76 73 74 73 72 74 74 74 75 74 77 77 76 76 75 75 75
35 33 47 51 53 54 49 43 54 43 44 42 47 52 61 65 65 70 69 71 71 72 73 73 74 76 75 73 72 74 74 73 74 74 74 73 74 74 74 73 73 74 73 74
42 34 44 46 52 54 51 56 42 45 34 34 44 46 52 58 63 65 65 66 69 71 73 72 71 72 73 73 73 74 74 74 74 74 74 74 74 74 74 74 72 72 72 73
45 40 41 46 40 42 48 46 47 48 47 39 40 47 60 61 62 61 64 67 70 71 72 70 68 66 71 74 74 73 74 73 73 74 74 73 74 74 74 74 73 73 72 72
45 39 35 40 50 51 49 46 45 40 40 45 44 45 62 63 62 63 63 67 71 71 72 68 65 64 69 72 73 73 73 74 74 75 74 73 74 74 72 72 72 73 72 73
45 39 32 38 44 47 44 46 47 46 45 40 40 45 63 64 64 64 63 67 70 71 73 68 64 64 66 71 73 73 74 74 75 75 74 72 72 72 71 72 72 73 72 72
47 40 36 31 37 41 38 43 45 44 39 42 43 47 56 59 59 61 63 65 69 71 72 70 64 65 66 72 73 73 74 74 74 75 74 72 72 72 72 72 72 72 73 73
43 36 40 41 41 41 40 40 42 41 44 39 45 47 53 57 57 60 62 66 68 70 72 72 66 65 68 71 72 74 74 74 74 74 74 72 72 72 72 72 72 72 72 74
43 35 40 37 42 41 38 42 43 43 44 44 45 45 56 58 60 62 63 65 66 68 71 73 70 67 69 71 72 72 73 73 75 74 74 73 73 72 72 71 71 71 72 73
36 37 34 31 40 39 34 42 44 45 48 48 42 50 57 56 58 60 61 62 63 65 68 71 71 71 71 72 73 72 73 74 74 75 74 74 73 72 72 72 71 71 70 70
35 35 35 31 35 24 42 47 46 44 47 51 51 53 56 58 61 61 62 63 63 66 69 71 73 72 73 74 74 74 74 74 75 75 75 74 74 73 72 72 71 69 69 69
37 34 30 28 30 37 41 36 36 35 37 50 51 54 57 59 59 58 66 65 63 64 68 72 75 74 73 74 74 74 74 75 75 75 75 75 75 73 72 71 69 69 68 67
37 34 32 31 26 24 34 39 40 38 32 48 48 51 54 54 43 57 62 61 62 66 70 73 74 74 73 74 74 73 74 74 74 76 76 77 76 74 72 71 69 69 69 69
35 33 29 30 29 35 40 40 39 31 34 41 47 47 48 46 50 56 59 60 63 66 69 75 74 73 73 74 74 73 74 73 77 78 78 77 76 74 73 70 70 69 68 68
33 32 33 32 30 28 42 39 33 37 41 43 47 48 46 51 54 57 60 60 63 66 70 74 73 73 74 74 74 73 72 76 78 78 78 77 74 74 72 68 69 69 68 67
34 37 33 32 33 41 44 42 44 44 43 46 47 48 50 50 53 55 59 61 63 66 70 75 74 73 72 74 76 73 74 77 77 76 76 74 73 73 72 68 68 68 68 68
44 46 38 40 42 44 45 48 48 48 48 48 49 49 51 50 53 53 59 63 65 68 71 73 74 72 71 74 76 77 77 77 77 75 75 74 73 71 72 72 69 69 68 66
45 45 44 43 47 48 51 49 48 48 49 49 50 50 51 51 51 53 56 60 66 70 71 70 73 73 73 75 76 77 77 76 74 75 74 73 74 72 71 72 70 70 71 65
48 45 41 39 48 45 48 50 50 47 47 49 48 49 54 53 52 54 58 62 67 69 70 68 69 73 74 75 75 75 77 76 75 73 74 74 74 73 72 67 62 43 47 46

GFSCGP_sfc_temp_060.txt.gz
Temp
66 58 56 60 64 64 63 62 63 69 75 73 70 68 73 78 79 81 83 84 85 87 92 94 92 92 90 89 89 89 89 87 86 88 88 87 86 86 87 87 85 83 83 82
58 53 61 64 63 61 61 58 59 66 68 70 69 68 74 77 78 82 83 83 84 86 88 89 90 89 89 88 88 88 87 87 84 88 86 89 88 88 88 87 83 83 82 82
53 58 64 59 57 54 56 55 56 58 65 69 66 64 68 76 80 82 81 82 83 83 84 85 86 87 90 89 89 89 88 86 85 85 85 83 85 84 84 84 83 83 82 82
55 62 58 56 54 57 50 60 60 58 57 52 65 51 65 71 73 76 79 82 83 83 85 85 86 87 88 90 92 90 88 86 85 82 84 81 84 83 86 85 86 83 82 82
53 55 55 53 55 60 54 62 59 59 55 56 58 56 63 71 69 74 78 80 82 83 84 87 89 90 91 91 91 90 87 86 84 81 83 83 84 87 87 87 80 81 81 82
57 63 60 58 60 61 62 58 58 57 56 47 54 55 57 64 69 73 79 80 81 84 86 88 89 89 88 91 90 87 86 83 83 81 81 81 83 83 84 82 82 83 83 82
53 54 60 60 51 59 57 50 39 38 39 42 59 55 58 70 73 76 77 79 80 83 85 86 87 89 89 87 88 87 84 82 81 81 81 82 81 81 80 81 84 82 83 82
40 40 51 56 52 51 53 50 41 32 38 45 57 49 59 72 76 78 79 80 80 81 84 84 86 86 89 88 87 85 83 82 81 82 82 82 81 85 84 84 84 84 84 83
40 40 54 56 57 56 52 46 55 46 49 49 55 58 66 71 71 74 74 76 76 79 82 83 84 84 85 87 85 84 83 82 82 82 81 81 83 83 83 81 81 83 82 83
47 36 51 51 56 57 53 56 42 48 33 36 50 53 55 64 67 72 74 73 76 79 81 82 81 80 84 85 83 84 83 82 82 82 82 82 81 82 81 80 81 80 80 81
52 43 45 52 47 43 47 50 48 48 49 40 44 53 68 68 71 70 71 73 75 78 81 82 78 76 82 84 84 82 83 81 81 82 82 81 81 81 81 80 80 79 79 79
54 46 41 47 55 55 50 42 40 39 41 49 49 53 70 72 70 69 70 73 76 78 82 82 77 70 81 82 82 82 81 82 82 82 82 80 81 81 79 79 79 80 79 80
50 46 38 44 49 54 48 51 53 51 49 38 46 53 69 69 70 71 70 72 74 77 80 83 80 69 77 82 82 82 82 82 83 83 82 80 79 79 78 78 78 80 79 79
47 44 40 36 43 48 43 47 52 50 42 46 49 55 64 67 68 70 71 71 74 76 79 82 81 69 71 81 82 82 83 83 83 83 81 78 78 78 78 78 78 79 80 79
42 39 45 49 50 50 48 47 49 47 50 44 50 53 61 65 67 68 70 71 73 75 78 79 80 72 72 78 81 82 82 82 83 82 80 78 79 79 79 79 79 79 79 80
46 35 44 42 49 49 46 50 51 51 52 51 52 52 64 66 68 67 69 70 72 73 76 78 80 76 73 76 80 80 81 81 82 81 80 80 79 79 78 78 77 77 78 79
38 40 38 36 47 45 40 49 52 53 55 55 49 57 64 63 65 66 68 70 70 72 75 76 78 80 74 79 77 76 80 82 81 81 81 80 80 79 78 79 78 77 75 75
37 37 37 32 35 25 44 48 48 44 48 53 54 57 62 64 67 70 72 71 70 72 75 76 78 80 76 79 79 80 82 81 82 82 81 81 81 80 79 78 77 75 73 73
38 35 33 31 31 39 44 44 37 35 40 51 53 57 63 66 67 66 72 73 72 71 74 76 79 82 76 75 81 81 81 82 83 82 81 82 82 79 79 77 75 74 73 73
39 34 33 34 28 27 37 41 42 38 33 42 45 53 57 59 56 64 71 70 70 73 75 76 79 82 73 75 80 80 80 81 82 83 83 83 83 80 78 77 74 74 74 71
40 34 30 33 31 39 41 42 42 31 34 41 44 45 51 48 56 63 67 67 71 73 74 78 78 80 73 78 81 79 80 80 84 85 85 83 82 80 79 76 75 74 73 71
36 33 34 35 32 29 48 41 34 40 44 45 45 49 48 53 56 59 64 67 70 72 74 79 76 76 74 80 81 80 79 83 85 85 84 83 80 81 79 75 76 74 72 69
38 42 35 35 35 49 48 45 49 47 45 47 49 51 55 50 53 60 64 66 70 73 75 79 77 75 76 81 82 80 81 84 84 83 82 81 80 80 79 76 75 76 71 70
50 54 42 45 51 52 52 51 51 50 48 49 51 51 53 52 57 60 64 66 69 73 76 77 77 76 77 81 82 82 83 85 84 82 81 80 79 78 78 79 78 78 73 68
51 52 48 48 53 53 54 55 51 48 49 49 51 52 51 51 55 61 63 64 67 67 76 77 77 78 80 82 83 84 84 84 81 81 81 80 81 78 78 79 77 78 72 71
56 51 45 43 52 50 51 55 53 46 46 49 50 49 52 55 57 55 57 60 62 67 76 76 78 80 82 83 84 85 86 84 81 79 81 82 82 81 81 76 74 43 46 46

GFSCGP_sfc_temp_063.txt.gz
Temp
70 64 60 65 68 68 66 64 63 70 78 76 74 75 78 83 80 81 86 88 88 90 95 98 98 97 97 94 92 90 90 89 90 91 90 92 91 91 91 92 90 88 86 85
63 58 66 68 66 64 63 60 60 68 73 73 72 72 79 83 82 81 83 85 88 90 92 94 95 94 93 91 89 88 88 88 89 90 88 93 93 94 92 92 88 87 85 85
58 62 67 64 63 59 60 58 58 59 68 72 69 65 70 79 84 84 84 86 88 89 90 91 93 93 93 91 89 89 88 87 88 87 91 89 90 91 89 89 86 85 85 85
61 67 62 60 59 62 53 63 62 60 57 53 68 53 66 73 75 80 83 84 87 89 89 90 89 90 90 91 93 91 89 87 88 87 87 85 86 85 88 88 87 86 85 84
57 59 58 57 60 64 57 64 61 60 57 56 58 56 64 73 71 76 80 84 86 88 89 90 91 91 93 94 94 92 90 88 87 86 86 86 84 89 90 89 83 84 81 84
61 66 65 63 65 65 65 60 60 60 57 46 55 56 59 67 73 77 83 85 86 88 90 91 91 92 94 96 95 92 89 86 87 86 83 84 84 87 87 86 82 83 79 80
57 59 64 64 58 64 59 53 42 39 41 42 58 54 59 70 76 78 79 83 86 88 88 89 90 92 92 92 92 92 89 85 86 84 83 84 85 86 85 82 84 83 79 80
43 42 56 63 58 54 55 52 41 30 35 43 57 46 59 72 77 81 82 84 86 84 87 88 89 91 92 92 91 90 89 86 86 84 83 84 85 87 87 85 87 87 86 85
45 44 59 62 63 61 53 49 57 45 46 35 41 55 67 74 75 78 79 81 81 82 84 86 89 89 89 91 89 89 88 87 85 85 84 84 84 86 86 85 84 86 85 85
53 42 56 58 59 62 56 59 39 48 35 32 44 49 54 65 69 75 77 78 79 81 84 86 86 84 87 90 90 89 88 86 85 85 85 84 85 86 84 83 83 84 84 84
57 50 50 57 51 50 53 50 53 49 44 37 33 46 66 69 71 73 77 78 78 80 84 86 83 82 87 90 90 87 87 86 84 84 84 84 84 84 83 82 82 82 82 83
56 48 44 50 61 64 57 53 48 35 36 50 47 46 64 69 76 76 76 77 78 80 84 87 84 80 87 87 87 86 86 86 85 85 84 83 83 83 81 81 82 82 81 82
51 45 37 43 51 47 42 48 51 49 47 40 35 43 63 71 73 75 74 76 77 79 82 85 84 79 85 87 86 86 86 86 86 86 84 82 81 81 80 80 81 82 82 82
51 46 38 34 44 40 37 46 52 52 43 42 47 49 48 53 71 73 74 75 76 78 80 83 83 78 81 87 86 86 86 87 86 86 83 81 80 80 80 80 80 82 81 81
45 39 45 49 52 52 52 53 54 51 53 44 50 51 54 50 53 68 73 73 75 77 79 81 82 78 79 80 86 87 87 86 86 84 82 80 80 81 81 80 81 78 80 77
47 38 46 43 50 52 50 55 56 55 55 55 56 53 64 66 68 70 71 73 74 76 78 80 81 78 77 74 80 85 85 85 86 83 82 82 82 82 81 80 76 76 79 77
39 40 41 37 49 45 41 49 49 51 58 55 50 59 66 66 68 69 71 73 73 75 77 78 81 78 76 74 77 81 84 86 84 83 83 83 82 82 81 81 78 74 75 74
37 36 37 35 38 28 47 51 49 47 50 56 57 60 64 66 69 72 75 74 74 76 77 78 80 75 78 76 77 82 86 85 85 84 84 84 84 82 82 81 78 73 76 75
44 36 34 32 32 40 44 39 37 36 40 49 46 55 60 57 58 66 75 76 76 76 77 79 81 76 78 73 79 84 85 85 85 84 84 84 85 82 81 78 72 76 73 72
46 37 34 36 29 28 35 46 46 41 32 43 43 44 48 52 52 58 69 73 74 75 78 78 79 75 78 74 78 84 84 84 84 85 85 86 85 83 79 74 77 75 73 73
41 34 32 34 31 37 43 50 46 31 37 45 47 48 49 49 58 61 67 68 72 75 77 80 76 72 79 75 76 83 83 83 87 87 87 85 84 80 75 75 76 73 74 72
38 37 37 35 32 30 53 46 36 45 48 49 52 51 53 54 60 61 64 67 71 74 77 80 73 73 77 76 79 83 81 86 88 88 86 84 82 84 81 78 76 75 73 71
42 48 39 38 39 54 57 54 55 51 50 48 50 51 52 53 57 60 62 67 71 73 73 78 73 76 72 75 82 82 83 87 87 86 84 82 82 79 78 78 77 75 71 71
53 57 48 47 52 56 57 58 59 55 51 50 50 50 52 51 56 59 62 65 70 71 72 71 69 74 70 75 85 85 86 88 87 84 82 82 76 75 79 75 80 72 73 70
53 54 50 50 55 57 59 60 58 56 53 50 51 50 51 55 59 58 61 67 71 72 74 69 71 75 71 77 85 86 87 87 84 83 82 82 77 75 75 63 63 74 71 69
56 52 48 44 53 54 55 59 59 53 48 48 49 51 54 55 57 60 65 68 64 65 70 67 71 72 75 83 86 86 88 87 84 81 82 82 79 73 75 78 73 44 45 44

GFSCGP_sfc_temp_069.txt.gz
Temp
61 50 45 52 56 58 56 54 52 58 64 59 57 59 64 68 69 70 76 76 75 78 84 86 87 81 80 77 76 77 77 76 75 73 72 70 71 70 71 73 76 76 75 76
53 46 58 63 61 58 55 51 50 57 62 60 57 56 62 66 66 68 71 74 76 76 80 83 83 84 82 76 78 76 79 75 74 73 71 72 71 72 73 74 75 76 75 75
48 55 65 61 57 55 53 50 50 51 58 60 55 51 56 64 67 70 72 75 74 76 75 78 81 81 77 76 74 75 76 75 74 73 71 71 71 71 71 71 72 72 76 76
52 60 60 56 54 56 47 58 57 55 49 40 54 38 50 58 60 65 69 71 73 71 79 80 81 79 73 77 79 79 77 76 75 72 72 73 76 71 69 72 72 73 75 74
50 54 53 52 54 57 49 56 54 53 48 41 46 39 48 54 55 60 65 69 73 74 73 77 76 77 76 75 72 73 73 73 75 72 77 74 71 72 71 71 72 71 71 73
55 63 56 53 57 57 58 51 50 49 42 34 44 42 43 49 54 60 65 69 72 75 74 77 78 76 75 76 77 76 74 75 76 74 73 72 71 70 70 70 72 72 70 70
52 54 56 58 49 53 50 39 27 27 28 31 47 43 46 52 58 60 60 65 69 74 76 75 79 79 72 74 73 75 74 71 71 73 74 72 72 70 70 70 72 70 69 68
36 34 52 58 49 45 45 42 31 24 26 33 46 35 44 58 61 63 65 66 67 72 76 76 77 77 75 74 73 72 70 70 71 72 74 73 72 73 73 72 73 72 72 71
38 40 56 58 58 56 45 38 47 36 40 29 36 44 52 56 55 53 52 55 55 59 74 72 72 72 73 73 72 72 71 73 72 73 72 71 72 71 72 72 73 72 70 72
45 36 51 55 56 55 49 52 34 32 23 24 34 38 40 45 45 48 48 49 54 56 63 72 71 72 71 72 72 72 69 70 71 71 72 71 70 72 73 74 73 72 71 72
46 38 41 48 44 43 38 38 36 35 32 26 25 33 46 44 45 44 47 52 52 53 59 71 72 70 72 72 71 71 69 69 70 70 70 70 71 72 75 72 72 73 73 72
46 38 32 40 49 49 46 40 38 30 29 32 29 34 49 48 48 47 47 52 53 55 54 67 69 70 71 71 70 70 70 72 73 74 72 72 71 72 71 70 69 70 70 72
44 34 28 33 39 44 41 43 43 38 35 30 29 34 56 50 49 49 47 49 51 53 57 64 68 70 71 70 72 72 74 75 74 72 70 71 73 71 68 68 68 68 69 69
49 37 32 27 34 40 38 43 47 38 31 34 37 41 45 44 47 47 46 49 49 51 57 62 68 68 68 69 75 75 75 74 74 74 71 71 73 70 67 67 66 68 70 69
42 33 38 41 44 45 44 45 46 43 41 34 41 37 43 43 47 49 48 49 51 54 60 66 67 67 68 67 70 78 77 77 73 74 72 71 71 69 69 68 68 68 69 70
43 34 38 35 43 45 42 47 47 47 48 45 44 42 49 51 54 52 52 53 57 62 68 69 67 67 65 66 68 70 73 73 74 74 72 72 70 70 68 68 68 67 67 71
40 37 32 29 42 40 34 41 43 44 47 44 36 41 48 47 50 52 54 58 59 61 63 67 66 65 65 64 64 67 72 73 75 74 73 72 71 70 68 68 70 69 68 69
39 36 34 30 34 24 40 46 46 43 45 45 45 46 47 47 50 53 56 55 57 59 61 64 64 64 64 64 64 68 72 75 74 73 74 73 72 70 68 67 67 66 64 66
43 37 32 26 25 36 42 41 38 37 38 45 44 47 50 51 51 51 58 59 58 60 62 65 67 65 63 62 65 67 71 75 74 72 71 74 74 70 68 65 63 65 63 62
39 36 32 32 27 20 33 43 47 41 29 44 45 45 47 48 39 45 54 56 58 61 63 64 67 67 66 65 65 64 69 75 73 74 75 75 74 70 68 69 65 63 63 63
35 34 31 31 28 33 42 44 45 28 30 44 45 44 45 43 46 51 55 56 58 60 63 65 66 62 66 65 65 65 69 71 77 77 76 75 70 70 68 65 64 63 63 62
33 33 29 32 26 25 46 44 37 41 46 45 46 45 45 46 49 50 54 55 58 58 61 64 62 62 65 67 64 66 70 74 80 75 72 71 70 72 68 65 63 63 62 61
32 40 35 36 32 47 49 45 48 48 47 47 46 47 51 47 48 51 51 53 55 58 60 63 62 61 65 64 65 66 72 76 77 72 71 70 70 68 66 64 63 62 61 60
45 49 39 41 47 46 47 49 50 50 48 49 49 48 47 45 49 50 52 52 54 58 59 61 58 63 62 63 67 72 73 80 75 70 69 70 69 64 64 65 63 62 61 60
43 46 43 40 46 47 49 50 49 49 50 49 49 48 49 49 49 50 50 52 55 56 59 59 58 62 63 63 65 72 74 77 72 70 70 68 66 64 54 51 53 60 58 59
46 44 38 38 46 44 47 53 50 48 47 46 47 47 49 49 49 51 51 54 56 57 58 57 59 62 62 63 67 74 76 76 71 69 68 67 65 64 62 58 53 42 42 43

GFSCGP_sfc_temp_075.txt.gz
Temp
51 44 40 46 47 49 46 44 43 48 55 51 49 51 55 58 58 58 61 61 61 63 69 72 74 74 75 74 71 72 71 71 72 70 72 72 73 73 70 70 71 71 69 70
46 40 51 54 52 49 47 43 41 48 53 51 48 50 55 55 57 58 59 60 61 62 66 70 72 73 71 71 71 68 70 72 72 75 77 77 79 71 76 73 70 71 71 70
41 49 56 54 50 48 43 41 42 42 49 51 47 47 49 54 56 59 58 61 61 61 61 65 68 69 67 68 71 71 70 72 73 75 73 66 69 69 68 69 69 69 71 71
46 53 52 48 48 48 40 49 48 46 41 33 47 33 47 49 51 54 58 57 56 57 58 59 63 64 66 70 73 69 69 72 74 76 73 74 77 77 72 72 69 70 71 71
46 48 48 45 48 50 45 50 46 45 39 34 39 32 39 50 49 50 52 54 54 54 56 57 59 62 64 67 71 70 69 72 74 75 76 75 69 72 65 67 68 67 68 70
49 53 50 49 52 51 52 44 41 38 34 25 36 36 36 40 44 48 51 53 55 55 56 58 60 61 62 64 65 69 65 69 71 71 74 75 75 68 66 65 67 66 67 69
45 46 50 54 44 48 44 34 24 23 24 26 38 34 38 47 51 51 50 52 54 55 54 55 56 59 60 60 63 66 68 68 69 71 72 72 74 71 70 66 67 66 66 67
33 31 45 51 45 40 39 36 24 19 23 28 39 28 37 49 51 51 53 52 53 53 55 55 57 58 58 60 61 62 68 69 68 70 72 73 74 71 67 67 66 68 68 68
33 35 49 51 49 46 37 32 38 29 29 24 30 38 45 50 49 51 50 52 50 51 52 54 56 57 58 59 62 61 65 72 71 70 73 72 69 66 66 67 67 67 67 69
40 32 45 48 49 46 40 43 28 25 22 21 28 30 34 44 46 47 46 46 48 50 52 54 55 56 58 60 61 62 66 71 73 71 70 69 70 69 66 66 67 67 67 69
39 35 37 42 39 37 35 32 31 29 25 18 22 29 40 42 44 43 44 46 46 49 53 53 54 56 58 60 60 63 65 69 70 65 66 64 64 65 66 67 68 68 68 68
41 33 29 35 44 45 40 36 33 23 24 27 25 30 48 44 45 44 44 48 48 51 53 54 54 56 57 59 62 63 65 63 70 69 65 64 65 66 67 67 68 67 68 69
41 31 27 30 35 39 36 38 37 33 30 30 25 30 46 45 45 46 45 46 48 50 51 55 54 55 57 58 61 64 65 64 62 64 64 64 66 67 67 68 67 68 68 68
47 32 32 25 32 33 33 38 40 39 29 29 31 35 42 45 45 46 45 46 47 49 52 53 53 54 55 58 61 62 64 64 65 66 66 66 67 68 68 67 67 68 68 68
40 30 33 36 40 40 38 38 39 36 37 31 36 36 42 45 42 44 47 49 51 53 51 54 53 53 54 55 61 61 63 65 66 67 66 67 67 66 66 67 67 67 68 67
36 30 33 33 39 39 37 40 40 41 42 41 40 39 46 44 44 44 47 49 50 52 52 55 53 53 52 54 59 60 62 64 67 66 65 66 65 66 66 66 67 67 66 67
33 31 30 29 39 37 30 38 40 41 42 40 35 43 44 44 45 45 47 50 51 53 52 53 53 53 55 56 59 58 60 62 65 65 66 66 66 66 65 67 66 65 65 65
33 30 31 29 32 24 37 43 43 40 42 43 43 45 46 45 46 48 50 49 51 53 54 54 56 57 58 57 60 59 60 61 62 64 66 67 67 67 67 68 66 63 64 62
39 35 32 28 24 32 38 39 37 35 37 45 44 47 48 46 45 45 51 53 53 53 54 55 57 57 57 56 58 60 59 61 63 65 66 67 68 67 68 66 63 62 61 60
40 38 33 31 25 17 30 41 44 40 31 43 41 41 42 43 36 43 49 51 51 53 54 54 55 57 56 55 57 60 59 60 61 65 67 68 67 68 65 62 61 59 61 59
34 34 31 31 28 29 40 43 43 30 32 42 47 44 42 40 44 49 50 50 52 51 53 54 55 53 54 56 58 59 59 58 62 63 65 66 66 64 64 61 61 59 59 59
32 31 30 31 28 25 43 41 34 39 44 45 46 46 44 46 47 47 49 49 50 51 52 54 53 53 55 57 58 59 59 61 61 61 66 66 65 67 64 62 60 60 60 58
32 36 33 34 32 40 42 42 46 46 46 46 45 46 45 44 45 46 46 49 49 50 51 53 52 52 55 57 60 59 59 58 61 63 64 64 65 65 62 61 59 59 59 59
40 44 33 34 40 41 44 46 48 49 48 48 46 43 45 43 44 46 47 49 51 51 51 52 51 52 53 57 60 59 61 62 63 63 64 63 62 60 61 62 61 60 59 59
39 40 35 35 40 43 46 48 48 46 46 44 45 44 44 44 46 47 47 49 49 50 51 52 51 52 54 57 59 60 63 64 63 63 64 62 61 59 55 50 53 59 58 60
39 36 34 33 42 42 44 48 46 43 42 42 42 44 46 46 45 47 48 50 51 52 51 50 51 53 55 58 59 61 63 65 64 62 64 62 59 57 56 55 52 42 42 46

GFSCGP_sfc_temp_078.txt.gz
Temp
49 43 38 44 45 46 44 41 39 45 51 48 46 48 51 56 56 56 59 60 60 63 68 68 70 70 69 67 66 66 66 67 67 67 67 66 69 71 70 69 71 70 69 69
45 39 48 51 48 46 43 39 39 45 51 48 46 48 53 55 55 57 59 59 59 60 61 64 64 65 64 64 64 64 64 65 66 69 69 71 72 74 74 73 71 71 70 70
40 46 53 51 46 45 41 39 39 41 46 47 44 43 46 52 55 57 57 58 58 57 57 59 62 61 60 61 63 64 63 64 66 68 68 67 68 67 68 68 70 71 71 70
44 50 50 45 45 45 37 47 46 44 38 31 44 29 41 46 48 52 55 53 54 56 56 57 60 60 60 62 62 61 61 63 67 68 70 70 73 73 74 76 74 71 71 71
45 45 44 43 45 48 43 48 43 42 36 31 35 29 37 45 44 47 51 53 54 53 53 55 57 60 61 62 61 61 60 60 63 65 70 72 72 76 74 68 69 69 68 70
47 51 48 47 50 49 49 43 39 34 31 24 32 32 30 38 44 47 51 53 54 54 55 55 57 58 59 61 61 59 57 60 61 63 68 71 71 69 66 66 69 67 67 68
43 43 48 51 43 45 42 33 24 23 23 24 36 32 36 45 50 49 50 51 52 53 51 52 53 55 57 58 60 60 60 59 60 62 65 69 71 70 68 69 68 66 66 67
31 31 44 49 44 39 36 34 23 18 21 23 36 28 34 46 51 50 52 51 51 50 50 52 54 54 56 58 59 59 59 59 60 62 65 68 70 73 72 70 68 70 70 69
34 34 47 49 48 45 35 30 35 28 26 21 27 34 44 48 47 49 49 50 49 48 49 51 55 56 56 57 57 58 58 59 59 61 65 66 69 70 71 68 69 69 68 69
39 32 43 46 47 44 39 42 27 24 21 19 26 29 32 41 45 46 47 47 48 48 48 51 54 55 56 58 58 58 60 59 61 63 66 68 69 70 70 68 68 68 68 69
39 34 36 40 37 35 34 30 30 27 23 17 19 28 39 40 43 43 44 47 46 47 48 51 53 56 57 59 59 59 60 61 62 62 65 67 68 67 67 68 69 69 68 69
39 32 28 34 41 43 38 35 32 23 23 26 26 29 47 44 43 44 44 48 48 48 50 50 53 55 56 57 58 58 59 63 65 63 64 65 66 65 66 68 68 68 68 69
40 30 25 30 34 37 34 36 34 32 28 28 26 30 46 43 44 47 48 47 48 49 50 50 51 53 56 56 56 57 58 61 64 63 61 62 64 65 66 67 67 68 68 69
46 31 31 26 32 32 31 36 37 34 29 29 31 35 43 45 44 46 46 45 46 48 49 49 51 53 54 55 55 57 58 60 63 64 61 63 64 66 66 67 67 68 69 68
40 31 32 35 39 39 37 37 38 34 36 30 35 35 41 44 44 44 45 46 48 50 51 53 52 52 53 53 53 56 57 59 63 64 64 64 65 66 67 67 67 68 68 69
34 30 32 30 37 37 34 38 39 39 38 37 38 36 47 48 46 44 45 47 48 49 52 54 55 52 50 52 52 55 55 58 62 65 65 66 67 68 68 68 68 68 67 67
34 34 32 29 35 34 29 36 38 40 40 38 33 41 46 45 48 47 45 48 48 50 53 54 54 51 50 51 53 52 54 60 62 64 66 66 66 67 67 68 67 67 66 67
32 31 32 29 32 22 36 41 41 39 41 42 42 44 48 48 49 48 47 46 48 51 54 54 55 53 53 53 52 53 55 60 61 65 66 66 66 66 66 67 66 66 66 65
38 34 30 27 26 32 36 37 35 34 35 43 42 44 47 47 46 48 49 50 51 53 54 54 55 55 55 54 55 53 55 60 61 60 65 66 66 66 66 65 64 64 64 63
38 38 32 32 23 19 32 40 42 39 30 42 41 41 43 44 36 44 52 50 51 52 53 53 54 55 54 54 53 53 56 59 60 61 67 66 66 66 65 63 62 64 63 61
33 33 30 30 28 30 39 41 43 29 30 41 43 44 43 42 44 49 50 49 50 51 52 53 53 53 53 54 53 53 57 58 61 63 64 66 65 63 63 62 62 62 61 60
33 31 30 31 27 25 42 40 34 38 42 44 44 45 45 45 46 46 47 47 48 49 51 53 51 51 53 53 52 53 58 59 62 62 63 64 63 63 62 61 61 61 60 58
29 36 33 33 30 41 41 41 43 43 42 43 46 47 46 44 45 45 46 46 48 49 50 53 51 51 52 52 53 53 59 61 61 61 61 62 63 62 62 61 60 60 59 59
38 41 33 33 40 40 42 44 44 44 46 46 45 44 42 40 42 43 46 47 48 51 51 52 50 49 50 53 55 56 59 62 61 59 62 62 61 61 62 62 62 61 60 59
39 38 34 32 37 40 44 46 47 48 46 44 44 42 41 44 44 45 46 47 49 50 52 53 51 50 50 54 55 57 60 62 60 58 62 61 61 61 54 51 56 61 61 61
39 37 34 34 41 39 41 47 48 45 43 43 41 41 46 45 44 45 45 48 48 49 51 51 51 51 52 54 56 58 61 60 59 59 60 60 61 58 56 56 53 42 44 45

GFSCGP_sfc_temp_084.txt.gz
Temp
68 64 60 64 66 65 62 60 59 63 67 64 65 66 69 73 74 73 71 71 72 74 79 79 77 78 79 78 78 77 78 76 76 81 80 87 86 86 86 87 87 86 87 86
63 59 65 65 64 62 61 59 59 63 66 63 63 63 69 72 72 75 75 74 73 74 75 75 77 78 73 75 75 76 76 76 77 82 80 78 81 88 91 92 88 86 85 84
60 63 66 63 61 59 60 58 58 57 62 65 63 60 65 71 73 75 76 78 77 74 71 72 74 74 76 75 75 75 74 75 76 76 80 82 83 84 86 88 89 87 85 84
62 66 62 61 59 61 56 63 60 57 56 52 62 50 62 66 67 70 72 74 75 74 73 71 72 73 74 75 76 75 75 74 77 76 78 76 78 81 88 91 93 91 86 85
59 61 60 58 60 64 59 62 60 58 56 56 57 52 61 64 62 66 70 72 74 74 74 73 73 71 76 77 77 76 74 74 74 74 74 76 76 83 87 89 86 86 86 85
64 68 64 64 63 64 64 60 60 60 57 47 56 54 59 60 63 66 69 72 72 74 74 74 75 76 76 77 77 76 75 74 75 74 75 73 72 73 78 82 85 87 87 87
61 62 65 65 60 63 61 55 47 46 46 47 55 51 58 64 66 68 68 70 73 73 74 74 74 76 75 76 76 74 74 73 75 75 74 74 73 73 72 74 81 82 84 82
51 49 60 64 61 58 58 55 47 35 43 51 54 47 58 66 68 69 69 70 71 72 74 74 75 75 76 76 75 75 75 73 73 73 74 75 75 77 78 78 81 82 83 84
53 51 62 62 64 62 56 51 58 49 51 46 51 56 62 65 65 66 67 68 69 71 72 73 76 75 75 75 74 74 74 74 75 75 74 73 75 74 75 75 77 85 83 88
57 47 60 61 62 62 58 61 47 49 37 38 49 50 55 58 60 64 65 66 69 71 72 74 75 75 76 76 75 75 75 74 75 75 75 76 75 76 77 76 76 78 84 86
60 53 53 56 54 53 55 52 51 50 47 39 40 52 62 60 62 61 64 67 69 70 72 73 75 76 77 77 77 75 74 74 74 74 74 74 75 76 76 77 78 79 82 84
59 53 47 51 60 60 58 54 55 44 41 47 46 48 65 64 65 64 65 68 70 70 72 73 74 75 75 75 75 74 73 73 74 74 74 73 74 74 73 75 78 79 81 84
56 50 42 46 51 54 50 55 55 54 52 44 43 50 64 64 64 67 65 68 69 69 70 72 73 73 73 74 73 73 73 72 72 73 74 72 72 72 71 73 76 79 81 84
56 50 45 41 47 48 45 50 53 51 42 46 49 52 59 62 63 65 65 67 68 69 69 71 71 72 73 73 73 73 72 72 71 71 72 70 70 71 71 72 76 78 82 83
53 44 48 49 50 50 49 49 50 49 50 42 49 51 58 62 63 65 65 66 66 67 68 69 70 71 71 71 71 71 71 70 69 68 70 69 69 71 71 70 77 78 81 84
55 42 47 45 51 51 46 50 52 53 53 53 54 53 64 66 68 65 65 65 65 66 68 69 70 70 69 69 69 69 68 67 67 66 68 69 68 69 68 69 77 78 81 83
48 44 41 39 48 48 40 48 51 53 56 55 50 58 64 61 61 63 64 65 64 65 67 68 68 68 67 68 68 66 66 66 63 64 67 67 66 67 65 72 78 78 79 82
44 41 39 38 42 28 50 58 56 53 56 60 60 61 63 62 62 66 68 66 65 66 64 65 67 67 68 69 67 64 62 62 62 64 65 64 64 64 64 74 78 79 80 80
51 44 34 32 35 43 47 52 51 49 50 59 59 61 62 63 63 63 69 67 61 62 64 65 68 68 67 66 64 61 60 57 57 58 58 64 64 61 65 76 78 79 78 79
41 42 36 36 28 29 43 52 56 55 43 57 57 57 57 60 51 58 66 62 63 66 66 66 66 66 64 63 61 58 58 57 55 54 58 61 57 60 67 74 75 76 77 76
35 33 31 34 31 41 50 53 56 36 40 54 57 57 57 52 57 57 60 63 65 65 65 65 63 58 58 60 59 57 59 55 54 56 56 56 58 65 70 69 70 71 71 70
37 36 34 35 32 30 53 52 41 50 55 54 54 54 52 55 58 61 63 63 63 62 63 59 56 57 58 59 57 57 55 58 58 56 55 58 64 66 67 68 68 68 68 68
39 45 37 40 41 54 57 53 55 54 45 45 47 51 56 57 59 62 61 62 62 60 54 55 55 55 57 58 56 56 60 61 59 58 61 61 66 66 67 66 66 66 68 70
47 50 44 43 49 51 51 54 55 55 53 55 55 55 58 57 60 60 61 61 60 54 52 54 54 54 57 59 60 61 64 66 64 61 62 62 63 63 65 66 66 66 69 68
40 42 37 43 50 46 52 51 53 53 55 56 59 60 59 59 59 58 56 55 52 51 53 53 52 53 54 55 58 65 68 68 64 61 62 62 62 63 63 63 70 74 73 71
38 37 33 34 42 37 39 49 52 56 56 57 56 54 56 54 49 50 49 49 50 52 53 50 51 52 53 55 57 66 69 69 63 59 61 59 60 62 67 70 64 42 47 46

GFSCGP_sfc_temp_087.txt.gz
Temp
75 68 64 69 73 71 70 66 65 71 77 69 69 70 76 80 79 76 77 78 79 78 85 81 80 80 79 81 78 75 77 75 76 78 75 84 85 86 89 89 89 89 90 88
68 62 71 73 71 67 66 63 64 70 73 70 68 68 75 78 78 77 78 78 79 79 79 82 80 79 77 78 78 76 74 76 78 80 77 76 77 78 82 89 85 86 87 87
64 69 72 67 67 63 65 63 64 64 69 70 66 63 68 75 78 78 78 80 82 81 78 79 79 78 79 77 75 76 76 75 77 77 80 81 79 78 78 81 83 87 86 87
67 74 67 65 64 67 59 70 67 63 60 54 69 53 66 72 72 75 76 77 79 82 80 77 77 77 77 78 80 78 76 76 80 78 79 77 76 77 82 81 85 88 88 87
64 65 64 62 65 69 63 69 65 63 60 59 60 57 63 72 69 71 74 76 76 80 79 78 78 77 78 79 78 78 78 77 77 77 77 77 77 80 82 84 83 83 86 86
68 75 70 68 70 68 70 65 63 63 60 49 58 58 60 67 68 70 74 75 77 77 78 79 80 79 79 80 80 78 77 77 77 76 76 75 73 74 76 78 80 84 89 90
65 67 72 71 64 68 65 58 49 48 48 48 63 59 62 68 72 73 72 75 77 78 78 78 78 80 80 79 80 78 78 76 77 77 76 77 75 74 73 74 77 79 85 89
55 52 65 70 64 61 59 57 47 37 41 48 59 51 60 73 75 75 75 75 77 77 78 77 78 79 80 80 79 79 77 75 77 77 76 76 75 78 78 78 79 81 84 86
55 55 69 68 69 68 61 54 63 50 52 49 55 61 66 70 69 71 72 73 73 75 77 77 78 79 79 79 78 78 77 77 77 77 76 76 76 75 76 76 77 79 78 84
61 51 64 65 66 68 63 66 49 52 39 38 49 52 53 61 65 68 69 70 73 74 76 77 79 79 80 80 79 79 79 78 78 78 77 77 77 77 77 77 76 78 78 79
64 57 56 63 56 55 58 55 57 55 51 38 37 48 64 64 67 67 69 71 72 74 76 77 79 80 81 81 81 79 79 78 77 77 77 76 76 76 77 77 77 77 77 78
64 56 49 54 64 64 62 58 55 41 44 50 49 50 65 68 69 69 69 72 74 75 76 77 78 79 80 79 80 79 78 77 77 77 76 74 76 76 75 75 76 77 77 81
61 50 43 49 56 61 56 59 59 57 55 46 40 44 66 69 69 70 70 73 73 74 75 77 77 77 78 78 79 79 79 78 78 77 76 73 74 75 74 75 76 76 78 79
59 52 47 41 48 45 41 52 55 52 43 47 50 53 53 56 62 70 71 73 74 73 73 75 75 76 77 77 78 78 78 79 78 77 74 72 71 73 74 74 75 76 78 78
57 46 50 52 53 54 52 52 54 51 52 45 53 54 59 64 66 70 72 73 72 72 73 73 73 75 76 76 76 77 78 77 77 74 73 71 71 73 73 74 74 76 76 78
58 45 50 47 53 53 50 54 55 55 56 55 53 53 64 69 72 71 71 71 70 71 73 74 74 74 74 75 74 74 74 74 75 73 71 71 69 70 72 72 73 73 74 76
51 47 44 39 50 50 45 52 54 55 59 57 49 57 66 65 67 67 67 68 69 71 72 72 71 70 70 71 72 71 72 73 72 71 70 69 67 66 69 70 72 72 72 74
48 46 44 39 43 30 53 62 60 56 59 61 59 60 65 66 66 65 70 70 70 68 69 69 69 70 71 72 72 71 72 71 69 68 67 67 65 65 67 68 68 70 72 73
54 47 38 34 38 47 52 56 53 51 49 59 50 62 58 60 61 63 71 72 68 66 69 70 72 72 71 70 70 68 66 65 64 62 62 65 66 62 62 64 66 67 69 72
46 47 36 37 30 31 42 53 61 59 44 56 57 57 56 58 50 61 68 68 68 69 70 71 71 71 69 68 66 62 61 61 58 60 61 60 58 57 59 62 62 64 69 73
36 35 34 37 33 42 48 54 59 38 42 55 56 57 57 54 58 61 65 65 65 67 70 71 70 68 64 64 61 57 58 58 60 61 62 60 58 58 62 60 59 64 69 74
43 37 34 37 32 31 51 52 42 49 57 57 56 55 53 55 58 59 60 59 63 67 70 71 68 64 62 60 59 57 56 61 62 61 61 61 62 64 64 62 60 67 71 72
39 46 41 42 43 55 57 54 58 55 53 55 55 54 54 54 56 59 57 59 64 67 68 68 64 61 60 59 60 54 56 59 59 57 55 58 61 63 61 59 64 68 68 68
50 54 46 46 51 54 55 59 58 60 57 58 60 59 60 58 60 60 62 63 64 64 62 62 59 56 55 58 60 58 58 60 58 54 54 54 55 56 59 68 67 67 66 66
44 50 43 47 53 51 57 56 57 57 57 55 61 61 58 58 56 57 56 57 56 55 56 57 57 57 57 57 58 59 59 57 56 56 57 61 62 63 63 60 66 68 68 71
47 38 35 37 47 40 40 51 55 51 49 56 55 54 53 51 48 49 49 51 53 53 55 57 57 57 55 55 56 59 61 61 60 58 57 59 60 61 63 59 54 43 48 47

GFSCGP_sfc_temp_093.txt.gz
Temp
63 52 48 54 59 61 61 58 56 62 67 62 59 60 66 69 66 64 66 68 68 69 71 69 69 68 68 67 67 68 68 68 68 70 68 67 73 73 73 75 77 77 75 75
56 50 62 67 66 63 60 55 53 61 66 64 61 60 63 66 64 65 66 66 67 68 67 70 67 67 66 65 66 67 67 66 67 69 73 70 67 68 73 73 75 76 77 75
53 60 70 68 63 60 56 53 54 55 62 64 60 55 58 64 65 69 70 68 67 68 66 67 67 65 66 65 66 65 66 66 66 68 68 69 69 69 69 70 71 72 75 76
58 66 66 62 60 60 50 62 62 60 53 42 56 42 52 59 61 66 70 71 66 67 69 67 66 64 64 65 68 67 65 66 67 68 66 66 68 66 68 70 71 72 75 75
56 60 59 59 60 64 56 64 59 57 50 45 50 40 49 57 57 62 65 70 66 68 69 68 65 66 66 67 65 65 66 66 66 68 65 64 65 66 68 68 68 70 71 73
59 68 64 62 67 66 66 58 54 51 45 38 47 44 47 53 57 63 69 69 72 65 65 68 68 67 66 67 67 66 65 65 65 65 65 63 64 65 65 66 65 66 68 70
58 60 66 69 59 63 58 43 32 30 32 35 51 47 47 55 61 66 68 66 65 66 66 66 64 63 65 65 65 65 65 64 67 65 64 66 66 65 64 64 65 65 66 67
47 44 59 68 63 54 53 48 39 27 26 34 49 40 45 62 65 69 69 64 65 65 66 66 66 66 64 64 64 65 64 64 66 67 65 65 66 65 64 65 64 64 66 67
46 48 63 67 64 59 51 45 48 43 39 32 38 48 55 61 62 64 65 65 62 63 64 64 64 64 66 66 65 64 65 66 67 65 64 64 64 63 63 63 63 64 66 70
52 43 58 62 65 60 55 56 38 38 26 24 36 39 41 51 55 62 63 58 59 62 63 63 63 64 64 64 64 64 64 65 66 66 66 65 64 64 63 63 62 62 64 66
54 46 48 54 50 47 46 45 44 42 37 27 28 34 52 48 54 54 59 64 59 60 62 64 65 66 66 65 64 64 63 64 64 65 65 65 65 65 64 63 64 63 63 64
53 48 39 46 55 60 54 45 43 32 30 37 34 36 57 51 54 55 57 62 63 62 62 63 63 64 65 65 65 65 64 64 65 65 66 65 65 65 64 62 62 63 63 65
50 40 32 37 45 48 42 45 43 41 38 31 31 32 58 58 55 57 56 58 60 62 61 61 64 64 64 64 65 66 65 65 66 65 64 63 63 62 62 63 62 63 63 64
55 43 38 31 39 44 40 42 44 40 32 33 36 38 46 50 55 58 59 59 59 59 61 60 62 66 64 65 66 66 65 65 66 66 64 62 61 61 61 61 61 62 64 64
44 35 38 42 46 47 47 47 48 41 42 34 41 42 46 49 53 55 56 59 61 61 65 63 64 64 62 62 61 63 63 63 63 63 62 62 61 61 61 60 60 60 61 64
45 33 37 38 44 46 44 48 48 47 46 44 44 42 53 50 51 51 54 59 62 62 64 64 61 60 56 62 61 63 62 62 63 62 62 63 62 62 60 60 60 59 59 60
39 35 34 31 43 42 33 42 43 45 48 44 41 43 48 46 47 46 48 53 53 59 59 59 60 60 58 62 62 60 61 61 61 60 62 62 62 62 61 61 59 59 57 57
39 36 33 26 34 22 42 50 47 41 48 46 44 49 50 47 48 49 51 50 51 54 58 58 57 57 58 59 59 60 60 60 60 59 60 61 60 60 61 60 60 56 54 55
44 38 28 28 24 37 44 44 43 40 40 47 47 50 51 52 53 52 56 55 53 54 57 58 60 60 60 61 60 60 58 58 57 57 57 58 59 58 59 59 59 61 60 60
46 40 31 27 22 23 36 47 51 49 33 46 49 47 47 47 37 43 54 56 56 57 58 58 59 60 59 60 61 59 55 54 54 55 56 57 57 57 57 58 58 59 59 59
36 33 27 32 30 34 44 46 50 34 34 47 49 46 45 41 43 49 54 54 56 56 57 59 58 57 58 57 55 53 53 52 54 56 56 57 57 57 57 57 58 57 57 58
34 32 32 33 28 26 46 47 38 42 44 45 45 45 44 46 49 50 50 50 51 52 54 56 54 55 56 57 56 54 52 55 57 57 55 56 57 57 58 55 55 55 55 55
33 37 30 37 32 44 49 46 48 47 44 43 44 46 47 47 48 49 47 48 49 50 51 53 52 53 54 54 54 52 54 56 55 55 53 53 54 54 56 53 52 53 54 54
44 46 40 38 44 41 46 45 46 45 43 45 46 46 47 43 47 44 44 45 46 48 48 50 50 50 50 52 53 53 55 57 55 53 51 51 51 51 52 53 53 53 53 53
41 42 36 38 42 41 48 44 43 43 46 47 49 48 45 46 45 43 42 43 44 45 48 48 47 47 48 51 51 53 54 54 51 50 50 50 50 50 50 50 52 54 56 55
42 35 34 32 40 40 40 44 45 44 43 45 44 46 47 45 43 43 43 42 42 42 44 45 45 46 48 50 50 52 54 52 50 48 49 50 50 51 52 51 51 42 45 46

GFSCGP_sfc_temp_096.txt.gz
Temp
58 50 45 51 52 55 54 51 50 56 62 55 54 55 60 63 64 68 65 62 64 68 73 67 66 66 65 65 66 67 67 66 67 67 66 66 75 72 72 73 75 75 74 75
52 46 58 61 61 56 54 51 49 55 61 57 55 54 61 60 63 62 63 63 64 62 62 64 63 64 63 63 63 63 65 64 64 65 64 66 66 66 68 69 71 73 73 74
47 55 64 61 58 56 54 51 50 51 57 57 53 49 54 59 62 65 65 64 63 62 61 62 64 63 62 62 62 63 63 64 64 64 64 65 66 66 67 65 66 69 71 71
52 61 60 57 55 56 48 58 58 55 48 39 53 37 50 54 56 61 63 62 62 62 63 65 65 62 62 62 62 62 62 63 64 63 63 62 60 61 67 69 70 68 72 71
53 56 55 53 56 60 53 60 56 53 46 39 43 37 48 52 54 56 60 63 63 62 65 63 64 65 62 62 60 61 62 61 62 62 62 60 59 60 63 65 67 68 69 71
56 63 60 58 63 61 62 54 49 45 40 34 42 40 45 49 52 54 60 63 67 70 65 67 65 63 62 62 61 60 60 61 62 62 62 60 59 59 59 61 63 65 66 67
55 56 62 63 55 60 52 42 32 29 30 34 46 40 45 53 57 59 58 61 66 68 61 61 62 63 63 61 60 62 61 59 60 61 62 62 61 60 60 61 61 62 63 65
42 42 55 63 56 51 49 47 40 27 26 35 44 35 43 56 60 61 62 64 59 59 62 63 64 64 65 64 62 64 61 59 60 61 61 60 61 60 60 62 61 62 62 65
42 44 59 62 60 55 47 41 47 40 38 29 33 42 52 58 57 59 60 62 60 58 59 63 64 66 63 61 62 61 62 62 63 62 61 60 60 59 59 60 60 60 62 66
49 40 55 58 60 56 51 53 40 37 26 26 31 36 39 47 51 54 55 60 62 61 62 62 62 63 63 62 64 62 63 65 64 64 62 63 61 61 61 60 60 60 61 62
51 45 46 52 48 45 44 42 38 36 33 29 25 31 45 46 49 49 52 60 58 59 60 61 60 60 61 62 61 61 60 64 62 61 64 61 61 62 62 62 62 61 60 61
51 43 37 43 52 54 48 41 37 28 27 33 32 33 53 51 55 52 54 56 57 59 59 57 57 58 60 60 61 61 60 62 65 65 64 63 63 61 61 61 62 61 62 61
49 39 30 34 41 45 41 43 39 37 36 31 29 30 53 53 50 51 52 57 58 58 59 59 61 59 59 60 61 60 60 62 64 63 63 62 61 61 62 62 62 61 62 62
51 39 36 30 38 42 39 42 42 39 30 31 34 40 47 50 49 51 50 53 56 58 62 64 60 58 62 61 60 61 60 60 60 60 58 59 60 61 63 63 61 61 62 62
44 36 37 39 43 43 42 40 40 37 39 32 39 41 45 45 46 46 49 51 54 58 62 62 65 63 59 58 60 62 62 61 61 62 60 60 59 58 58 58 59 61 61 64
40 33 35 34 42 42 39 42 41 44 44 42 43 42 44 45 46 47 47 50 49 51 53 57 59 58 56 57 58 60 61 60 61 59 59 60 59 59 58 57 58 58 59 60
37 33 30 27 39 38 32 40 42 41 41 40 34 39 44 44 46 46 45 47 49 52 53 53 55 57 57 55 57 59 59 59 58 58 59 60 59 59 58 58 58 57 56 57
37 33 29 25 31 20 38 46 46 39 39 42 39 43 49 47 47 49 49 46 49 51 52 52 55 55 56 56 55 55 56 58 58 59 59 60 60 59 57 56 54 53 52 53
42 35 28 24 21 34 39 42 40 38 38 46 45 48 48 47 46 46 51 51 50 49 51 51 56 58 57 56 56 55 55 55 57 58 59 58 56 55 54 53 52 53 54 57
41 39 33 24 21 22 33 44 48 45 33 45 45 43 42 42 36 40 48 49 48 49 50 50 52 54 53 53 53 51 52 52 51 53 54 55 54 53 53 53 54 57 58 58
31 31 23 24 26 32 42 44 49 31 32 44 42 40 39 36 39 45 48 48 48 47 49 52 52 51 53 54 54 52 51 51 54 55 54 54 55 55 56 56 56 56 55 56
33 30 28 31 29 25 44 44 37 39 44 44 42 41 40 42 44 45 45 47 46 47 48 50 48 49 51 52 51 50 50 53 54 54 54 54 56 56 57 56 55 55 55 54
32 38 31 31 31 40 45 43 42 44 41 42 41 42 42 41 43 46 46 46 45 45 46 48 46 47 48 50 50 47 50 52 52 52 51 52 53 54 56 53 52 52 53 51
40 43 38 35 38 38 41 42 42 43 40 42 44 44 44 42 45 44 46 45 45 47 45 47 45 44 45 48 49 49 51 52 51 49 49 50 49 50 52 52 51 50 50 50
37 38 33 34 38 40 43 44 45 45 46 45 45 43 43 44 42 41 42 42 42 44 45 45 44 42 43 46 46 48 50 51 48 48 48 49 49 49 49 49 50 50 51 52
39 34 27 28 40 39 40 45 45 43 42 43 41 42 45 43 41 43 40 40 42 41 43 42 43 43 44 46 47 48 50 49 47 46 46 47 48 49 49 49 49 47 47 46

GFSCGP_sfc_temp_102.txt.gz
Temp
51 46 42 47 48 49 47 44 44 49 55 50 49 49 54 58 57 58 58 58 57 58 64 65 66 66 65 64 64 65 66 69 70 69 69 69 69 69 70 70 72 72 71 71
47 42 52 53 52 49 47 43 43 49 54 50 49 48 53 55 56 57 59 58 58 58 60 62 63 63 63 66 63 63 64 64 70 70 66 67 66 68 68 69 71 72 72 71
44 50 57 54 50 48 44 42 44 46 50 50 46 43 49 55 55 59 59 59 59 60 61 62 61 61 60 61 64 64 65 63 63 64 64 62 63 64 65 65 67 69 71 71
47 53 54 50 49 50 41 52 51 49 43 36 47 37 43 49 51 54 57 57 59 59 59 60 62 60 58 62 61 61 60 61 62 62 63 63 62 61 62 64 66 67 69 69
48 49 48 47 51 53 48 53 50 48 41 36 39 32 40 45 48 52 53 56 57 59 58 59 60 62 63 59 59 59 59 59 60 60 62 62 60 61 61 61 63 63 65 68
51 55 55 53 56 56 55 48 43 38 35 29 39 36 38 44 50 50 54 56 59 58 58 58 59 60 61 57 57 58 58 58 58 59 59 59 59 58 58 59 60 61 62 63
48 51 55 58 50 54 47 39 29 28 28 32 42 36 44 48 53 53 55 57 57 56 55 55 55 56 59 55 57 59 58 58 58 58 58 58 58 58 58 59 59 60 61 62
38 40 50 56 52 50 43 41 31 25 25 34 39 32 40 51 55 55 54 53 54 53 53 54 55 55 57 58 59 61 60 59 59 58 58 59 59 58 58 58 59 59 60 62
36 39 55 58 56 53 44 38 43 35 30 25 32 37 46 51 51 50 50 52 52 52 53 55 56 55 55 56 58 60 61 61 59 59 59 59 59 57 58 59 59 59 59 62
45 36 51 56 57 55 51 53 39 36 28 23 30 31 35 44 46 47 47 48 49 52 54 55 56 57 56 55 56 57 58 59 60 59 60 59 58 58 59 58 58 59 60 61
50 41 43 48 47 46 45 43 40 40 35 28 28 31 41 43 44 45 47 49 49 50 52 54 55 56 55 57 59 57 57 57 58 59 58 57 58 59 59 59 59 59 60 60
49 43 37 43 49 51 47 42 41 32 30 32 27 32 48 44 45 46 47 50 51 52 53 55 55 56 58 59 61 61 59 59 60 60 59 57 58 58 57 59 59 60 60 60
47 39 30 35 43 46 43 43 40 38 34 29 26 32 47 48 47 50 47 49 49 52 53 54 57 55 58 61 61 62 61 60 61 60 61 59 58 56 57 58 60 60 61 61
51 37 35 30 36 41 39 41 41 38 30 28 31 36 41 45 47 50 47 46 47 50 52 52 50 51 54 57 58 59 61 61 59 59 57 58 57 58 59 60 60 60 61 61
44 32 36 39 43 44 41 40 41 34 36 31 36 34 41 39 40 43 45 47 49 50 51 52 52 51 53 53 55 57 57 58 59 59 57 55 56 56 57 57 58 59 59 61
41 32 36 35 42 40 37 40 40 39 39 35 36 34 37 40 43 47 44 46 47 47 50 52 53 52 51 52 53 54 54 55 56 55 56 57 57 57 55 56 57 57 58 59
37 34 30 29 37 35 30 36 38 38 38 36 30 36 39 40 43 44 46 48 46 47 48 50 50 50 50 50 52 50 52 53 53 53 55 57 57 57 57 57 56 56 57 57
34 32 30 26 31 22 35 42 42 38 41 43 40 42 43 44 43 44 48 45 45 45 46 47 48 49 50 49 49 50 52 52 52 53 54 56 56 56 56 56 56 55 55 55
42 35 27 25 24 32 35 39 39 37 37 42 43 44 44 42 41 43 48 46 44 45 46 48 49 48 49 50 50 49 49 50 50 51 52 54 55 55 55 55 54 55 55 55
40 40 32 27 22 22 32 43 44 43 32 42 42 40 38 39 33 39 44 45 45 46 47 47 48 49 49 49 49 48 48 48 48 50 51 53 54 53 53 53 53 54 53 55
32 32 26 29 27 32 39 42 44 28 28 37 38 37 36 36 41 44 45 44 46 46 47 48 48 48 49 49 48 46 47 46 49 50 50 51 52 52 52 52 52 52 52 53
31 30 23 29 26 23 40 41 33 35 36 38 38 41 42 43 44 44 45 44 44 45 47 48 46 46 48 49 48 45 45 48 49 48 48 48 49 51 53 51 52 52 52 52
30 34 28 30 28 37 39 39 40 39 39 38 41 44 43 43 42 42 42 43 45 46 45 47 46 46 48 47 46 43 46 50 49 48 47 47 48 50 51 49 50 50 51 51
36 38 34 34 35 36 39 39 40 41 43 44 45 44 42 39 40 41 43 43 43 41 43 45 44 41 41 44 46 46 47 49 47 45 44 45 45 46 48 49 49 49 49 50
35 35 32 32 35 38 38 39 41 42 44 44 46 44 43 42 41 39 38 39 41 43 42 43 40 40 41 44 44 46 47 47 45 45 45 45 46 45 45 46 46 47 49 49
35 33 28 29 37 35 36 39 42 40 42 44 43 42 44 42 39 39 37 40 41 40 38 39 38 40 41 42 43 44 46 45 44 43 43 44 44 44 45 45 45 45 44 45

GFSCGP_sfc_temp_105.txt.gz
Temp
62 61 56 60 60 59 57 55 54 60 65 60 62 62 67 71 71 73 75 73 73 74 79 77 77 78 78 77 76 76 76 76 77 78 77 78 78 79 79 81 80 81 79 80
60 55 63 61 60 57 56 54 55 59 63 59 62 61 66 68 70 73 74 73 74 75 77 78 78 76 76 76 76 75 75 77 77 79 78 79 79 81 81 81 81 81 79 78
56 60 63 60 58 56 56 54 54 56 60 61 59 58 62 68 68 71 72 73 73 73 74 75 76 75 76 75 75 76 75 75 76 78 79 76 76 75 76 77 79 79 79 79
59 64 60 58 57 59 53 60 60 57 55 50 59 47 59 64 65 67 71 72 74 75 77 76 75 76 76 76 77 76 76 75 75 74 75 75 76 76 78 79 80 80 79 78
58 58 57 56 60 61 58 61 59 57 55 51 55 49 57 60 60 65 70 72 73 75 75 74 76 76 77 77 75 75 73 73 74 73 75 74 74 76 78 75 75 77 77 78
61 65 63 63 63 63 64 60 56 52 53 45 53 51 54 59 62 67 70 70 71 72 73 74 75 74 74 78 76 72 71 71 73 72 72 72 73 71 74 74 76 77 77 77
59 60 65 65 59 64 60 54 45 43 44 43 56 51 54 63 67 69 67 68 69 70 70 70 71 73 73 73 74 72 70 70 71 71 72 72 72 71 71 71 75 74 75 76
49 48 59 63 61 59 58 56 47 36 40 46 50 46 54 63 68 66 63 64 66 67 69 69 70 70 71 71 70 71 71 70 72 71 71 71 72 73 73 73 76 76 76 76
47 48 60 63 66 63 58 50 59 49 45 42 49 54 58 62 61 61 62 64 64 65 67 69 71 70 70 70 69 69 69 70 71 71 70 69 71 71 72 71 69 74 74 75
53 44 57 59 63 61 58 61 47 48 36 34 45 45 49 56 59 60 61 61 64 66 67 68 70 70 69 70 69 68 68 69 70 70 70 71 70 70 70 68 70 71 72 74
55 49 51 56 53 53 54 52 51 49 45 36 35 45 56 56 58 57 59 62 63 64 66 67 68 71 71 71 72 69 69 67 68 68 68 69 70 68 70 67 71 72 72 72
53 48 42 47 58 55 54 51 49 40 34 38 37 41 57 56 57 57 59 61 63 63 64 65 67 67 69 70 71 71 70 69 72 69 64 67 68 68 66 67 71 73 72 73
51 44 37 41 49 52 49 52 47 43 37 35 32 41 56 58 58 59 56 59 61 60 62 63 63 64 64 66 67 68 67 69 70 69 69 69 68 68 66 66 70 71 73 73
49 44 41 36 41 45 38 43 46 39 34 40 40 44 51 54 53 55 55 57 58 59 59 61 61 62 60 62 64 65 65 58 61 67 68 67 66 66 66 67 69 70 72 73
47 35 41 44 46 46 45 44 45 42 44 38 43 44 50 53 51 52 54 56 56 57 58 59 59 60 60 59 61 63 64 64 61 59 59 61 63 65 64 64 67 68 69 72
46 37 41 39 45 46 42 46 46 46 46 45 45 45 55 52 52 52 53 52 51 56 57 57 58 58 58 59 60 60 61 62 62 59 60 63 64 63 66 64 64 65 67 69
44 41 38 34 42 41 37 44 45 46 47 47 41 49 50 49 51 51 52 52 52 54 55 56 57 57 57 57 56 57 58 60 60 60 59 61 63 64 64 64 65 66 65 66
43 42 40 34 38 27 42 48 48 45 46 49 47 50 51 49 50 53 56 54 55 56 54 55 57 57 57 58 57 58 59 58 58 59 59 60 61 62 64 64 63 63 65 64
47 43 34 32 33 40 41 44 44 42 43 49 47 48 49 49 50 52 57 56 53 54 55 56 57 57 57 57 58 57 56 57 57 57 58 59 60 60 60 60 61 62 63 64
45 45 37 32 28 28 41 46 49 47 36 43 44 44 45 47 35 46 54 53 52 53 54 55 56 56 56 56 56 55 54 55 55 57 57 58 58 58 57 58 59 61 62 62
34 34 32 33 31 39 45 47 50 33 38 46 47 47 47 43 45 49 52 51 53 54 54 56 55 54 55 56 54 52 52 52 55 56 56 56 56 56 55 55 57 58 59 61
36 33 33 34 30 28 46 47 39 45 49 47 48 49 47 49 49 49 49 50 51 49 51 51 49 50 52 53 53 51 50 52 53 53 53 53 55 55 56 54 55 56 57 57
36 41 38 37 40 45 49 48 50 50 47 48 48 49 47 44 45 48 48 50 48 48 47 47 49 50 51 52 51 47 49 50 51 50 49 50 51 52 51 51 52 54 55 56
44 46 43 42 44 46 49 49 50 51 49 50 50 48 47 45 47 47 49 46 43 46 45 46 45 46 46 48 48 47 48 49 49 47 47 49 49 50 52 52 53 53 54 55
45 46 42 43 46 49 48 51 51 50 50 49 50 49 46 46 45 47 47 46 44 42 44 44 43 43 43 46 46 47 48 48 46 46 46 47 48 48 48 49 49 49 52 54
47 43 41 42 48 46 48 51 52 48 47 48 46 45 47 46 46 47 47 45 43 43 42 40 41 40 42 43 44 45 47 46 44 43 45 46 46 45 45 44 44 45 44 45

GFSCGP_sfc_temp_108.txt.gz
Temp
73 68 64 69 71 70 66 64 64 69 73 69 69 71 75 79 80 79 81 82 83 84 89 89 88 89 89 88 87 85 85 85 85 85 85 85 85 86 87 89 87 87 85 85
67 63 72 71 68 66 65 63 64 69 72 68 69 69 75 77 78 80 80 81 82 84 87 88 89 88 87 86 85 84 84 84 84 87 86 89 88 89 89 90 87 86 85 85
64 68 70 68 66 63 64 63 63 63 69 70 68 65 70 76 78 80 81 83 83 82 83 84 85 86 87 86 86 86 84 83 83 84 86 85 86 87 88 88 87 86 86 87
67 73 67 66 64 67 60 69 66 64 62 57 68 55 67 72 73 76 79 81 82 84 85 85 85 85 86 87 88 86 84 82 84 83 84 82 83 84 87 88 90 89 86 86
64 65 65 63 65 69 64 69 66 65 62 61 62 58 64 72 67 72 77 80 82 84 84 83 85 85 86 86 87 85 83 82 82 83 81 85 81 86 88 89 86 84 85 85
68 73 69 69 71 70 70 66 66 65 62 52 60 60 62 68 69 73 78 80 81 81 81 82 84 84 85 87 87 85 82 79 81 80 80 78 81 81 86 87 87 87 86 86
64 67 73 72 66 71 68 61 52 51 52 50 65 60 63 71 74 75 75 76 77 78 80 79 80 81 81 82 82 82 81 79 80 80 79 79 79 80 80 80 83 83 86 86
55 51 67 72 67 64 66 63 54 43 48 55 60 53 63 71 74 76 75 73 75 75 78 77 79 79 80 80 80 80 79 78 80 79 79 79 79 82 82 81 84 85 87 86
55 54 65 68 70 69 63 58 67 55 58 52 58 63 70 72 71 72 71 71 71 73 75 76 79 79 78 78 78 78 77 77 77 78 78 77 79 78 80 78 78 83 83 86
58 48 62 64 66 68 63 68 54 56 41 40 51 54 56 62 65 69 69 69 71 73 75 76 77 77 78 79 79 78 78 76 76 77 77 78 78 78 78 77 77 80 80 81
56 50 52 62 57 55 58 57 59 58 54 42 41 51 64 63 65 64 67 69 70 71 73 75 76 77 78 80 81 78 77 78 76 75 75 75 78 79 78 77 77 78 77 79
57 49 46 53 65 64 59 55 55 42 42 48 44 46 68 66 66 65 66 68 70 71 73 74 75 75 75 76 77 76 76 76 77 77 77 74 76 75 75 74 75 76 77 77
52 42 40 47 56 60 55 57 56 54 48 43 39 48 64 65 65 67 65 67 67 68 70 71 72 72 71 71 73 74 73 72 73 74 75 71 71 73 72 74 74 75 75 78
48 47 43 39 46 46 45 50 53 48 36 46 45 50 56 63 63 65 64 65 66 66 67 68 69 70 70 69 69 70 71 72 71 70 64 67 68 70 72 73 73 75 77 78
44 39 46 48 49 50 48 49 51 46 46 39 48 51 58 62 62 62 62 64 63 63 62 63 64 67 68 68 68 69 69 68 70 69 68 56 59 67 70 71 71 71 70 73
48 39 45 42 48 48 45 50 52 53 53 53 54 53 64 62 62 61 62 59 61 63 64 65 65 65 65 66 66 66 65 66 68 68 68 68 61 58 62 65 68 71 70 71
43 44 40 39 46 47 42 50 53 54 57 55 49 57 61 59 57 58 61 62 62 63 64 65 64 65 65 65 65 64 65 66 66 66 67 68 67 65 62 62 64 63 65 69
45 44 43 38 43 31 49 55 54 52 54 57 56 57 56 55 59 62 64 62 62 62 63 63 65 64 65 66 65 64 65 65 64 64 66 67 67 67 66 64 64 66 65 64
52 44 36 34 36 46 51 51 50 48 50 57 55 57 57 58 60 60 66 65 62 62 62 61 61 61 62 63 64 63 62 63 63 63 64 66 67 66 66 65 64 65 65 67
51 46 37 37 30 33 45 52 55 55 44 54 53 54 55 57 49 57 63 62 61 62 63 60 64 64 63 63 62 60 61 62 61 62 62 64 65 64 64 63 63 64 65 65
37 36 35 38 34 44 51 53 56 37 40 54 56 56 55 52 56 58 60 60 61 61 62 60 59 56 58 59 57 52 54 55 59 62 62 62 63 62 62 61 62 62 62 63
36 35 35 38 34 32 53 52 44 50 55 56 56 57 55 57 58 57 56 55 58 60 60 62 55 53 56 57 53 51 52 56 57 57 57 58 59 60 61 60 60 60 60 59
39 45 41 43 43 51 56 53 57 57 55 56 56 57 56 55 51 50 53 56 57 58 59 60 55 51 51 54 51 48 51 52 53 51 50 51 52 54 55 54 55 56 57 57
50 53 47 46 50 54 56 58 58 59 57 57 58 57 57 53 53 54 55 56 56 58 56 56 53 48 48 49 50 50 50 52 50 48 48 49 51 51 52 54 54 53 52 53
52 52 50 50 54 55 57 59 59 59 59 57 58 57 55 50 50 54 55 54 55 54 51 50 45 49 47 45 46 49 49 49 47 47 48 49 50 50 49 50 50 52 55 55
55 48 43 42 51 52 54 59 59 56 55 55 54 52 51 53 51 52 54 55 49 48 44 45 47 42 44 48 45 47 48 48 46 45 46 47 47 47 48 47 47 46 45 45

GFSCGP_sfc_temp_111.txt.gz
Temp
76 71 68 73 76 77 75 72 71 77 81 75 74 75 80 84 84 83 84 85 86 88 92 94 94 94 93 92 91 90 88 88 88 89 88 87 87 89 91 92 91 89 88 88
73 66 76 79 77 73 70 68 69 75 79 75 73 73 79 82 82 84 84 84 86 87 89 91 92 92 91 90 90 88 87 87 88 89 89 91 90 92 92 92 90 90 89 87
68 74 77 75 72 68 69 67 68 69 75 76 72 68 73 80 83 84 85 87 87 87 87 88 90 90 90 89 89 89 89 87 86 87 90 89 89 91 91 90 90 91 89 89
72 78 73 70 69 71 64 74 72 69 66 61 75 59 71 77 78 81 83 84 85 87 88 88 88 88 88 90 91 90 88 86 87 85 85 83 86 85 90 91 93 92 89 88
69 71 70 68 70 74 68 76 71 70 66 65 66 62 68 76 74 78 81 83 86 88 88 88 89 88 90 90 89 89 88 86 84 84 84 84 83 89 90 92 89 87 88 87
71 79 74 73 76 75 76 71 69 69 66 55 63 63 65 72 75 78 81 83 85 87 86 86 87 87 87 90 89 88 85 83 84 83 82 81 80 81 86 88 89 91 91 88
68 69 75 76 69 74 71 64 54 53 54 53 68 64 67 76 79 80 79 81 83 83 83 84 83 84 84 84 85 85 84 82 82 82 82 81 80 80 79 81 85 86 88 90
56 54 69 73 68 64 68 65 56 46 50 58 69 59 69 78 81 80 81 80 79 80 81 81 82 83 84 83 82 83 82 81 82 81 81 82 81 83 83 83 84 85 89 88
56 56 71 73 75 72 63 59 69 59 61 56 61 67 75 77 76 78 78 78 77 77 78 80 82 82 82 81 82 81 80 80 81 80 79 79 80 80 80 80 80 82 82 89
62 50 66 69 72 72 67 71 54 57 43 43 55 58 61 68 70 73 74 74 76 76 78 79 81 81 81 82 81 82 82 80 81 81 79 80 79 80 80 81 80 78 80 80
62 54 56 63 57 60 61 58 59 58 54 42 43 54 64 66 68 68 69 72 73 75 77 78 79 81 82 81 82 81 80 80 80 80 79 77 77 76 78 77 77 78 78 75
59 52 47 55 66 67 64 59 58 46 43 52 49 51 70 65 70 69 71 73 75 75 75 77 78 79 80 79 79 78 78 77 77 77 77 76 74 72 68 70 73 79 79 80
54 44 43 50 60 65 59 61 60 59 55 46 41 48 67 65 67 68 69 70 73 73 74 75 75 75 75 75 75 75 76 77 77 76 76 74 73 72 70 71 73 74 78 79
53 51 45 41 49 48 47 50 56 52 39 45 47 52 60 58 58 61 67 70 71 71 71 72 71 71 69 69 70 73 75 75 75 75 74 72 70 70 68 71 73 73 72 75
45 40 49 51 52 55 54 54 54 50 52 44 50 52 58 61 64 66 68 68 68 68 68 69 68 70 66 66 68 71 73 73 72 72 71 71 71 68 63 62 66 70 73 75
46 42 48 45 53 53 50 54 55 54 54 53 54 53 64 66 69 67 66 66 62 63 66 68 70 70 67 66 68 70 70 70 71 70 70 71 72 72 67 61 59 63 69 72
41 44 41 42 50 50 45 54 55 56 58 57 51 58 63 60 59 62 65 65 65 67 69 69 69 70 69 69 66 65 67 70 69 68 69 70 70 71 71 68 61 58 63 67
40 42 43 41 46 34 53 60 59 55 58 61 60 61 61 61 64 67 69 68 67 68 68 68 69 68 68 69 68 68 68 67 67 67 68 69 69 70 71 70 67 62 58 59
49 45 37 36 40 48 52 54 55 51 52 59 57 60 61 64 65 64 70 70 67 67 67 68 70 69 67 65 63 63 62 63 64 66 67 68 69 68 69 68 68 66 65 62
49 48 37 38 32 35 46 55 60 59 47 58 59 59 60 62 54 61 67 67 67 67 68 67 68 68 66 64 63 61 61 61 60 62 63 67 67 66 65 66 66 67 67 66
39 39 36 39 36 46 53 57 60 42 40 54 59 60 59 57 60 63 66 65 66 65 65 67 66 66 65 63 61 57 54 55 56 59 61 61 62 63 64 64 66 65 65 65
36 37 38 40 35 34 57 56 47 50 58 59 60 60 59 60 61 62 64 63 63 63 65 66 64 64 62 61 59 54 52 57 55 55 55 54 55 58 60 58 58 59 59 60
38 43 38 41 41 52 58 57 60 61 59 60 60 61 61 60 60 62 61 61 62 63 64 66 63 59 58 58 55 53 53 55 53 53 51 52 53 55 56 55 55 58 58 58
52 54 48 47 52 55 58 60 63 63 62 62 62 61 61 59 60 60 60 59 61 63 61 62 56 52 51 55 54 51 52 53 51 48 48 49 50 50 52 53 52 52 53 55
54 56 53 52 56 57 60 60 62 63 64 62 62 61 60 60 58 57 58 60 61 61 59 53 49 48 45 47 49 52 51 49 48 47 48 48 50 50 50 51 52 52 53 52
57 49 46 45 53 54 55 61 62 57 59 59 58 57 59 58 56 59 59 59 56 50 47 46 47 46 46 47 47 49 51 49 46 46 47 48 49 49 49 46 46 46 45 46

GFSCGP_sfc_temp_114.txt.gz
Temp
74 68 64 70 73 74 73 72 70 76 82 78 74 74 78 83 84 82 82 83 84 86 90 91 91 90 88 87 87 85 85 86 84 82 82 82 82 83 84 85 85 85 83 82
70 64 74 77 77 74 72 69 68 74 79 77 74 72 77 80 81 83 83 83 83 85 87 89 89 87 86 85 84 85 84 84 83 82 81 84 83 85 85 86 85 85 85 82
66 72 78 75 73 71 70 66 67 67 75 77 73 68 72 79 82 84 85 85 85 84 85 85 86 86 86 86 85 84 82 82 83 82 82 80 83 82 82 85 84 84 85 85
70 78 74 72 69 72 63 73 72 69 67 59 73 55 68 74 76 80 82 83 84 85 86 86 87 86 86 87 86 87 85 82 84 81 79 77 75 75 83 84 86 85 84 84
67 71 70 68 70 74 67 75 72 71 65 63 64 59 66 75 73 77 80 83 84 86 86 86 86 86 87 86 86 86 84 84 83 82 79 77 76 80 82 84 81 80 82 82
70 79 75 73 76 76 76 72 70 69 64 53 61 60 62 68 73 77 82 84 84 86 87 87 85 85 85 86 84 82 80 80 82 80 79 76 75 75 77 77 75 81 84 81
65 68 74 76 68 74 72 64 52 49 50 49 64 61 64 74 79 81 81 82 83 83 83 83 83 83 82 83 83 81 78 76 78 78 77 77 76 75 74 74 76 74 79 81
53 52 68 74 69 64 64 63 53 42 46 54 66 57 64 75 81 82 83 81 80 80 81 80 81 81 82 82 81 82 79 77 77 76 76 76 75 76 76 76 77 77 78 80
55 56 71 72 73 71 63 57 66 54 56 51 57 64 73 77 77 79 79 79 77 77 78 78 81 81 81 80 79 79 78 77 77 76 75 76 74 74 74 74 74 76 76 80
62 51 65 67 71 72 67 70 52 54 40 39 52 56 58 64 67 70 73 76 75 77 77 78 79 78 78 79 79 79 78 76 74 77 77 76 75 74 74 72 73 74 75 76
63 55 55 62 59 58 62 59 60 57 52 37 40 50 62 63 65 67 70 74 74 74 75 76 77 78 79 79 81 78 77 75 74 72 70 72 72 73 71 71 71 70 71 73
61 55 49 54 65 69 63 59 58 44 44 50 47 48 65 65 66 64 65 72 72 74 75 76 76 77 76 76 76 76 75 74 74 74 72 70 73 72 70 70 70 70 68 69
57 50 43 49 58 63 58 58 59 57 54 46 41 46 63 61 61 63 63 68 71 72 73 75 75 74 74 73 72 73 73 74 75 72 72 70 68 68 68 68 68 68 66 64
54 51 46 40 49 53 45 46 50 47 39 43 48 52 60 55 55 59 61 64 69 70 72 73 72 72 72 71 72 72 72 73 73 73 70 68 66 68 68 67 66 66 66 64
52 43 49 51 53 54 53 52 53 50 50 42 50 52 58 61 54 59 63 67 68 69 70 69 68 70 71 71 70 70 70 70 70 70 69 66 67 67 68 66 65 65 63 64
50 41 47 45 51 53 51 55 55 55 56 55 55 54 64 66 68 64 65 65 66 67 67 69 70 71 70 71 69 69 68 68 69 68 68 68 68 68 66 66 64 63 62 62
43 40 40 37 49 48 43 52 55 56 59 57 50 57 63 60 59 61 64 65 66 68 69 70 70 68 68 69 67 65 67 67 66 66 67 68 68 67 67 67 65 63 60 60
41 40 37 36 45 33 53 63 61 57 58 60 58 60 59 61 64 66 68 67 66 67 67 67 68 67 68 69 68 67 66 65 65 64 64 65 67 67 67 66 64 61 60 59
45 40 35 35 38 46 52 56 53 45 51 58 56 55 57 62 64 63 68 67 66 66 67 67 68 68 67 66 67 66 64 63 63 62 62 62 63 60 59 60 63 62 61 59
48 43 36 37 32 32 45 55 61 60 45 56 57 57 56 60 51 58 64 65 65 67 67 66 66 66 66 66 64 63 62 61 60 61 61 61 60 58 57 57 55 61 61 61
38 36 33 33 33 42 53 56 61 41 41 55 58 59 58 54 57 61 64 64 66 66 66 66 66 65 65 65 63 60 59 58 59 60 60 59 58 56 56 55 55 55 58 60
39 37 37 39 35 33 54 56 47 51 58 59 60 59 58 59 60 61 63 63 64 63 64 65 64 64 64 63 59 56 55 58 57 56 54 55 55 55 57 54 54 55 55 54
38 45 36 37 41 51 55 54 60 61 59 60 59 60 60 59 59 60 60 61 62 61 62 65 63 59 58 57 55 52 53 54 53 52 51 52 52 53 53 51 51 53 53 52
48 52 44 46 51 52 51 57 58 61 59 60 62 61 60 57 58 58 59 59 60 62 61 58 55 53 51 52 52 51 51 52 50 48 48 50 50 50 51 51 52 51 51 51
53 54 50 50 54 55 54 54 55 60 61 61 61 60 58 57 57 57 58 59 59 57 53 51 49 48 48 49 49 49 50 49 47 47 47 47 48 48 48 49 50 50 51 52
54 49 44 43 52 51 52 57 60 59 57 59 57 56 57 57 57 57 56 55 52 48 47 47 46 45 45 47 47 48 49 48 47 46 46 46 46 45 45 45 46 46 45 44

GFSCGP_sfc_temp_117.txt.gz
Temp
64 53 49 56 61 64 64 60 60 65 72 68 66 65 68 71 70 69 70 72 72 74 77 79 80 77 76 75 76 75 76 75 73 74 74 73 78 75 75 77 78 77 78 79
58 51 63 68 68 66 64 59 58 64 70 65 61 62 68 69 68 69 69 70 71 72 74 77 76 75 75 73 74 75 75 75 76 72 73 73 72 73 72 74 79 81 77 79
55 62 71 68 66 64 62 58 57 58 65 65 61 55 61 68 69 72 71 71 71 72 72 74 76 73 71 71 71 72 74 73 73 74 71 71 72 72 71 72 78 80 81 79
60 69 69 67 64 64 54 66 65 63 56 45 60 42 56 62 66 70 71 69 70 71 73 72 73 70 71 72 72 71 71 72 73 72 69 68 68 68 69 69 73 73 76 81
59 63 63 62 64 68 60 68 63 62 54 49 54 44 51 61 59 66 71 70 69 71 72 73 72 71 71 72 70 68 68 70 70 71 70 67 66 67 68 70 70 70 74 77
63 71 68 65 70 69 70 62 59 55 49 38 49 47 49 57 61 64 68 74 72 71 71 70 71 71 69 70 69 68 68 67 69 69 69 67 66 66 65 67 67 67 69 69
59 62 68 71 62 65 60 48 37 35 36 36 54 49 54 61 68 71 72 69 69 70 67 67 67 68 69 68 68 68 68 67 67 68 67 67 67 66 65 66 66 68 72 71
48 46 61 69 61 56 56 50 38 31 32 40 55 47 55 67 69 72 71 69 69 66 65 66 67 67 68 68 68 69 68 67 67 67 66 66 67 65 65 65 66 69 70 71
47 51 67 70 69 64 56 48 56 44 44 37 43 51 60 67 68 68 70 69 66 64 65 67 66 66 66 67 66 67 67 65 65 66 66 65 65 65 63 64 64 64 68 72
54 44 61 65 67 65 59 63 47 44 30 29 41 46 48 55 57 61 66 64 64 65 66 65 64 65 65 64 65 66 64 64 64 64 63 64 63 64 63 62 62 62 63 64
54 48 50 56 52 50 54 52 52 49 42 30 29 41 57 55 56 54 58 64 60 61 63 63 64 65 65 64 63 62 63 64 62 63 63 63 64 65 65 61 61 62 62 62
52 46 41 49 57 60 56 51 49 38 35 38 36 40 55 56 58 59 57 61 62 64 64 63 66 64 63 64 65 63 61 62 63 64 62 62 61 63 62 61 61 61 59 59
49 41 33 40 49 55 46 51 46 41 42 38 34 39 56 58 54 57 55 58 62 63 63 63 63 63 63 63 64 64 63 63 62 63 61 60 59 58 59 60 60 59 59 59
52 42 38 31 41 47 44 50 49 44 35 38 38 43 48 52 52 53 55 56 60 61 64 64 61 60 61 63 63 63 62 62 62 61 60 59 58 58 58 60 60 59 59 59
47 36 41 43 47 49 47 47 50 42 42 36 43 45 50 55 50 53 56 58 61 61 61 59 59 59 59 60 60 62 61 61 60 60 58 58 58 58 58 58 60 60 59 61
46 36 39 38 46 47 45 49 50 50 51 50 50 48 59 57 54 55 56 58 59 58 61 63 63 61 60 60 60 61 60 60 59 58 58 59 59 58 57 57 56 57 59 59
42 38 33 30 45 39 35 45 49 51 53 51 45 49 53 51 54 53 54 57 59 60 62 61 59 59 58 58 59 57 58 59 59 58 59 60 58 58 57 57 57 55 56 57
40 39 35 31 37 27 46 58 56 55 49 53 50 50 50 50 56 58 58 54 55 57 58 57 56 55 56 56 56 57 58 57 57 56 57 58 57 57 57 56 56 56 56 56
46 39 32 31 31 40 48 53 49 47 43 50 50 52 53 53 56 54 59 57 54 54 55 55 56 56 56 56 57 58 55 55 55 56 56 57 58 56 53 51 52 56 56 53
47 42 33 32 30 28 41 48 57 54 38 52 52 50 49 50 41 47 54 54 54 55 55 55 55 55 54 54 57 57 55 52 52 54 55 56 54 53 52 50 51 53 55 56
36 35 32 31 30 36 48 54 56 37 35 49 51 48 48 45 47 50 53 53 54 54 54 54 54 54 57 54 49 48 48 48 51 54 54 54 52 51 50 52 51 51 51 53
35 34 32 33 31 30 51 50 41 46 52 52 50 49 48 49 51 51 52 52 53 52 54 57 54 49 49 49 48 46 46 50 51 52 51 51 52 53 54 52 50 49 50 49
35 40 36 36 36 46 50 48 50 51 48 51 50 50 49 48 48 49 50 50 52 54 53 49 46 46 47 47 47 45 47 49 49 47 47 47 50 51 52 49 48 50 50 48
46 49 40 41 47 48 49 48 51 52 54 54 52 51 50 46 48 49 50 51 49 47 45 45 44 43 44 45 46 45 46 48 47 45 45 46 47 47 49 49 49 49 48 46
45 47 44 44 46 49 47 48 49 53 56 53 52 50 49 48 48 49 49 45 44 43 43 43 42 41 41 42 43 44 45 45 44 45 45 45 46 46 45 47 47 47 49 49
47 43 38 36 45 44 46 51 56 53 49 49 49 48 50 51 49 44 41 42 41 40 41 40 42 41 40 41 41 43 44 44 43 42 43 44 45 43 42 42 43 43 43 43

GFSCGP_sfc_temp_123.txt.gz
Temp
57 48 44 49 51 53 52 50 49 54 62 59 56 55 60 64 62 62 65 65 66 67 75 74 76 73 70 67 68 70 70 70 70 69 68 68 70 67 67 68 69 71 70 70
50 45 55 58 57 54 52 49 49 55 61 56 56 56 59 61 61 64 65 64 64 63 68 72 70 68 68 70 71 70 73 70 73 71 70 71 71 71 71 71 72 73 72 72
48 54 61 58 55 53 52 48 50 51 57 57 53 51 53 60 60 62 63 64 64 65 67 69 68 66 66 66 66 69 70 70 71 71 70 68 69 68 68 68 69 70 70 71
51 59 59 55 54 55 47 57 57 55 49 43 52 39 49 54 58 59 61 61 62 64 66 67 67 64 66 67 65 65 65 67 69 68 68 66 65 63 64 66 66 65 68 69
52 53 53 52 55 58 52 59 55 54 48 44 45 41 47 52 56 59 60 62 63 65 64 65 65 70 64 64 64 64 64 64 63 64 64 62 61 61 61 62 62 62 64 67
55 61 60 58 62 60 62 53 49 44 41 35 43 42 42 49 54 58 61 62 63 64 65 64 62 62 61 61 60 60 61 61 62 62 62 62 61 60 59 59 59 59 60 61
52 54 61 63 55 56 53 42 34 33 33 33 44 41 44 53 57 57 56 55 55 58 58 58 59 60 58 59 60 61 62 60 62 63 64 64 64 63 62 61 60 59 59 59
45 42 56 61 56 51 46 44 34 29 30 34 44 37 45 55 58 58 58 56 57 54 53 55 57 61 61 61 61 62 62 61 61 61 61 61 60 60 59 59 59 59 59 59
46 48 61 62 62 60 50 43 47 37 35 32 37 44 52 55 56 57 57 59 57 56 57 58 58 57 58 59 59 60 60 59 59 59 58 59 59 59 59 59 59 58 58 62
50 42 55 58 61 60 54 58 43 39 30 26 34 37 40 46 49 52 53 52 55 56 57 57 57 58 57 58 57 58 59 58 58 58 58 59 59 59 59 58 57 57 57 58
50 46 47 53 48 44 46 44 45 43 41 29 28 34 51 50 49 49 50 52 52 54 56 56 55 56 57 56 57 57 58 59 58 59 59 59 58 59 58 58 58 57 57 57
49 44 39 44 50 52 47 43 42 34 33 34 32 35 50 51 51 53 52 54 54 56 60 60 57 58 57 58 59 60 60 60 60 59 59 58 58 57 57 57 57 56 56 56
45 37 32 38 45 48 44 44 42 39 36 32 29 34 51 53 53 56 53 57 61 58 57 59 60 60 60 61 61 61 61 62 61 58 58 57 57 55 56 56 57 55 55 55
48 37 35 31 36 40 37 42 42 38 33 35 38 38 45 48 49 53 55 57 57 59 60 58 58 59 59 58 58 59 58 58 58 57 55 55 55 55 54 55 55 55 55 54
40 33 35 37 41 42 41 41 41 36 37 33 38 39 45 48 49 51 55 56 56 56 55 55 54 52 53 54 55 56 55 55 55 56 55 54 54 54 54 54 54 54 54 55
39 31 34 33 41 41 38 41 41 41 42 41 42 41 49 54 54 50 49 51 50 51 53 54 55 55 53 54 55 56 55 56 55 54 54 55 54 54 53 53 52 52 52 53
36 36 31 28 37 36 30 37 41 43 44 43 37 43 46 45 46 45 46 49 51 52 53 53 53 53 52 52 53 52 53 54 54 54 56 56 55 55 55 55 53 53 51 50
35 36 33 31 30 22 38 49 48 44 45 46 45 46 47 46 47 47 47 46 50 50 50 50 49 49 50 50 49 49 50 50 51 51 53 55 55 55 56 54 51 50 48 48
39 36 32 28 29 34 41 44 43 42 41 45 46 50 50 51 49 44 51 50 46 45 48 48 48 48 47 45 46 46 46 46 47 48 49 50 50 50 49 49 47 48 46 46
43 42 34 31 22 23 38 46 51 50 34 46 48 46 47 46 38 41 46 49 48 49 48 46 45 44 43 43 44 43 44 43 45 47 48 50 49 49 49 49 48 49 47 49
35 34 31 31 29 32 43 46 52 34 31 44 45 42 42 40 42 44 45 46 45 45 43 42 42 40 40 42 41 42 42 42 45 46 46 47 47 46 47 48 48 48 49 50
33 32 31 33 30 26 45 46 39 41 45 47 46 44 42 43 45 44 45 44 43 42 42 42 40 39 40 41 40 41 41 44 43 43 43 43 43 45 47 46 46 47 46 46
32 37 34 36 32 42 46 45 47 47 46 47 46 46 45 43 42 43 41 41 40 40 40 40 37 39 41 41 40 38 40 41 41 41 40 41 44 44 45 44 44 44 45 44
40 43 39 36 41 43 44 46 47 49 49 50 50 48 44 40 40 39 39 38 37 38 39 39 37 37 37 39 40 39 40 41 39 38 38 41 41 41 43 44 44 42 42 42
41 41 38 38 40 42 45 45 47 47 47 46 46 43 41 40 39 37 36 37 37 36 37 36 35 35 36 38 37 39 41 41 38 38 39 38 39 39 39 40 40 41 43 42
41 40 37 34 43 40 40 43 46 43 42 43 42 41 41 37 35 35 35 35 34 34 35 35 36 34 34 36 38 39 39 39 37 36 36 37 36 36 37 37 37 41 41 41